Time,TemperatureF,DewpointF,PressureIn,WindDirection,WindDirectionDegrees,WindSpeedMPH,WindSpeedGustMPH,Humidity,HourlyPrecipIn,Conditions,Clouds,dailyrainin,SoftwareType,DateUTC
2013-06-29 00:13:00,68.5,66.7,29.72,West,270,0.0,-999.0,94,-99.99,,,0.00,Acu-Link.com,2013-06-29 07:13:00,
2013-06-29 00:28:00,68.2,65.8,29.71,North,0,0.0,-999.0,92,-99.99,,,0.00,Acu-Link.com,2013-06-29 07:28:00,
2013-06-29 00:43:00,67.8,67.2,29.72,East,90,0.0,-999.0,98,-99.99,,,0.00,Acu-Link.com,2013-06-29 07:43:00,
2013-06-29 00:58:00,67.3,66.7,29.71,NNE,22,0.0,-999.0,98,-99.99,,,0.00,Acu-Link.com,2013-06-29 07:58:00,
2013-06-29 01:14:00,67.1,40.0,29.72,East,90,0.0,-999.0,37,-99.99,,,0.00,Acu-Link.com,2013-06-29 08:14:00,
2013-06-29 01:29:00,66.7,65.8,29.71,ESE,112,0.0,-999.0,97,-99.99,,,0.00,Acu-Link.com,2013-06-29 08:29:00,
2013-06-29 01:44:00,66.6,66.0,29.71,SSW,202,0.0,-999.0,98,-99.99,,,0.00,Acu-Link.com,2013-06-29 08:44:00,
2013-06-29 01:59:00,66.2,29.3,29.71,East,90,0.0,-999.0,25,-99.99,,,0.00,Acu-Link.com,2013-06-29 08:59:00,
2013-06-29 02:14:00,65.7,28.9,29.71,WNW,292,0.0,-999.0,25,-99.99,,,0.00,Acu-Link.com,2013-06-29 09:14:00,
2013-06-29 02:30:00,65.7,64.5,29.70,SSE,157,0.0,-999.0,96,-99.99,,,0.00,Acu-Link.com,2013-06-29 09:30:00,
2013-06-29 02:45:00,65.3,64.7,29.69,SSW,202,0.0,-999.0,98,-99.99,,,0.00,Acu-Link.com,2013-06-29 09:45:00,
2013-06-29 03:00:00,65.3,64.4,29.69,SSE,157,0.0,-999.0,97,-99.99,,,0.00,Acu-Link.com,2013-06-29 10:00:00,
2013-06-29 03:15:00,64.9,45.3,29.68,SSE,157,0.0,-999.0,49,-99.99,,,0.00,Acu-Link.com,2013-06-29 10:15:00,
2013-06-29 03:30:00,64.8,64.2,29.69,South,180,0.0,-999.0,98,-99.99,,,0.00,Acu-Link.com,2013-06-29 10:30:00,
2013-06-29 03:45:00,64.4,63.8,29.69,SE,135,0.0,-999.0,98,-99.99,,,0.00,Acu-Link.com,2013-06-29 10:45:00,
2013-06-29 04:00:00,64.4,44.8,29.69,WSW,247,0.0,-999.0,49,-99.99,,,0.00,Acu-Link.com,2013-06-29 11:00:00,
2013-06-29 04:15:00,64.2,63.6,29.69,West,270,0.0,-999.0,98,-99.99,,,0.00,Acu-Link.com,2013-06-29 11:15:00,
2013-06-29 04:30:00,64.4,63.8,29.69,SE,135,0.0,-999.0,98,-99.99,,,0.00,Acu-Link.com,2013-06-29 11:30:00,
2013-06-29 04:45:00,64.4,44.8,29.69,SSW,202,0.0,-999.0,49,-99.99,,,0.00,Acu-Link.com,2013-06-29 11:45:00,
2013-06-29 05:01:00,64.2,63.6,29.69,SSE,157,0.0,-999.0,98,-99.99,,,0.00,Acu-Link.com,2013-06-29 12:01:00,
2013-06-29 05:16:00,63.9,63.3,29.70,SSE,157,0.0,-999.0,98,-99.99,,,0.00,Acu-Link.com,2013-06-29 12:16:00,
2013-06-29 05:31:00,63.7,63.1,29.70,SSE,157,0.0,-999.0,98,-99.99,,,0.00,Acu-Link.com,2013-06-29 12:31:00,
2013-06-29 05:46:00,63.3,62.7,29.70,SSE,157,0.0,-999.0,98,-99.99,,,0.00,Acu-Link.com,2013-06-29 12:46:00,
2013-06-29 06:01:00,63.3,62.7,29.70,SSE,157,0.0,-999.0,98,-99.99,,,0.00,Acu-Link.com,2013-06-29 13:01:00,
2013-06-29 06:16:00,63.7,63.1,29.70,SE,135,0.0,-999.0,98,-99.99,,,0.00,Acu-Link.com,2013-06-29 13:16:00,
2013-06-29 06:31:00,64.6,64.0,29.69,WSW,247,0.0,-999.0,98,-99.99,,,0.00,Acu-Link.com,2013-06-29 13:31:00,
2013-06-29 06:46:00,67.5,66.9,29.70,WNW,292,0.0,-999.0,98,-99.99,,,0.00,Acu-Link.com,2013-06-29 13:46:00,
2013-06-29 07:01:00,71.1,70.2,29.71,NNW,337,0.0,-999.0,97,-99.99,,,0.00,Acu-Link.com,2013-06-29 14:01:00,
2013-06-29 07:16:00,74.3,73.7,29.70,NNW,337,0.0,-999.0,98,-99.99,,,0.00,Acu-Link.com,2013-06-29 14:16:00,
2013-06-29 07:32:00,77.5,76.9,29.69,NW,315,0.0,-999.0,98,-99.99,,,0.00,Acu-Link.com,2013-06-29 14:32:00,
2013-06-29 07:47:00,81.9,77.3,29.70,NNW,337,0.0,-999.0,86,-99.99,,,0.00,Acu-Link.com,2013-06-29 14:47:00,
2013-06-29 08:02:00,84.6,83.0,29.69,NNW,337,0.0,-999.0,95,-99.99,,,0.00,Acu-Link.com,2013-06-29 15:02:00,
2013-06-29 08:17:00,88.2,-24.0,29.69,West,270,1.7,-999.0,1,-99.99,,,0.00,Acu-Link.com,2013-06-29 15:17:00,
2013-06-29 08:32:00,89.2,-23.4,29.70,West,270,0.0,-999.0,1,-99.99,,,0.00,Acu-Link.com,2013-06-29 15:32:00,
2013-06-29 08:47:00,91.4,84.3,29.70,NNE,22,1.1,-999.0,80,-99.99,,,0.00,Acu-Link.com,2013-06-29 15:47:00,
2013-06-29 09:02:00,93.2,92.5,29.70,NNE,22,1.1,-999.0,98,-99.99,,,0.00,Acu-Link.com,2013-06-29 16:02:00,
2013-06-29 09:17:00,94.6,93.6,29.70,South,180,2.2,-999.0,97,-99.99,,,0.00,Acu-Link.com,2013-06-29 16:17:00,
2013-06-29 09:32:00,96.1,95.4,29.68,SW,225,1.7,-999.0,98,-99.99,,,0.00,Acu-Link.com,2013-06-29 16:32:00,
2013-06-29 09:48:00,96.8,62.9,29.69,WNW,292,1.7,-999.0,33,-99.99,,,0.00,Acu-Link.com,2013-06-29 16:48:00,
2013-06-29 10:03:00,99.0,-17.6,29.68,SE,135,1.1,-999.0,1,-99.99,,,0.00,Acu-Link.com,2013-06-29 17:03:00,
2013-06-29 10:18:00,100.2,-16.9,29.68,SSW,202,0.0,-999.0,1,-99.99,,,0.00,Acu-Link.com,2013-06-29 17:18:00,
2013-06-29 10:33:00,100.8,76.2,29.67,SSE,157,2.7,-999.0,46,-99.99,,,0.00,Acu-Link.com,2013-06-29 17:33:00,
2013-06-29 10:48:00,102.4,96.6,29.67,SW,225,2.2,-999.0,84,-99.99,,,0.00,Acu-Link.com,2013-06-29 17:48:00,
2013-06-29 11:03:00,100.6,77.9,29.67,WNW,292,3.2,-999.0,49,-99.99,,,0.00,Acu-Link.com,2013-06-29 18:03:00,
2013-06-29 11:18:00,97.7,91.2,29.67,SSW,202,2.7,-999.0,82,-99.99,,,0.00,Acu-Link.com,2013-06-29 18:18:00,
2013-06-29 11:33:00,96.4,-19.2,29.67,South,180,2.2,-999.0,1,-99.99,,,0.00,Acu-Link.com,2013-06-29 18:33:00,
2013-06-29 11:48:00,99.0,64.8,29.67,South,180,5.3,-999.0,33,-99.99,,,0.00,Acu-Link.com,2013-06-29 18:48:00,
2013-06-29 12:04:00,99.0,98.0,29.67,ESE,112,1.1,-999.0,97,-99.99,,,0.00,Acu-Link.com,2013-06-29 19:04:00,
2013-06-29 12:19:00,99.7,97.7,29.67,SSW,202,2.7,-999.0,94,-99.99,,,0.00,Acu-Link.com,2013-06-29 19:19:00,
2013-06-29 12:34:00,101.8,99.9,29.67,NNE,22,3.7,-999.0,98,-99.99,,,0.00,Acu-Link.com,2013-06-29 19:34:00,
2013-06-29 12:49:00,100.9,99.9,29.66,West,270,2.2,-999.0,98,-99.99,,,0.00,Acu-Link.com,2013-06-29 19:49:00,
2013-06-29 13:04:00,102.0,99.9,29.66,West,270,3.2,-999.0,98,-99.99,,,0.00,Acu-Link.com,2013-06-29 20:04:00,
2013-06-29 13:19:00,100.4,99.7,29.66,West,270,2.7,-999.0,98,-99.99,,,0.00,Acu-Link.com,2013-06-29 20:19:00,
2013-06-29 13:35:00,101.5,99.9,29.65,West,270,3.2,-999.0,98,-99.99,,,0.00,Acu-Link.com,2013-06-29 20:35:00,
2013-06-29 13:50:00,102.4,99.9,29.65,SW,225,2.7,-999.0,98,-99.99,,,0.00,Acu-Link.com,2013-06-29 20:50:00,
2013-06-29 14:05:00,103.3,99.9,29.64,NNW,337,1.7,-999.0,98,-99.99,,,0.00,Acu-Link.com,2013-06-29 21:05:00,
2013-06-29 14:20:00,101.7,99.9,29.63,West,270,2.7,-999.0,98,-99.99,,,0.00,Acu-Link.com,2013-06-29 21:20:00,
2013-06-29 14:35:00,100.8,99.9,29.63,East,90,2.7,-999.0,98,-99.99,,,0.00,Acu-Link.com,2013-06-29 21:35:00,
2013-06-29 14:53:00,102.0,99.9,29.62,SW,225,4.7,-999.0,98,-99.99,,,0.00,Acu-Link.com,2013-06-29 21:53:00,
2013-06-29 15:10:00,102.0,99.9,29.63,WNW,292,6.3,-999.0,98,-99.99,,,0.00,Acu-Link.com,2013-06-29 22:10:00,
2013-06-29 15:25:00,101.8,41.7,29.61,West,270,2.7,-999.0,13,-99.99,,,0.00,Acu-Link.com,2013-06-29 22:25:00,
2013-06-29 15:43:00,100.6,80.3,29.61,WSW,247,4.2,-999.0,53,-99.99,,,0.00,Acu-Link.com,2013-06-29 22:43:00,
2013-06-29 16:04:00,100.4,99.7,29.60,West,270,4.2,-999.0,98,-99.99,,,0.00,Acu-Link.com,2013-06-29 23:04:00,
2013-06-29 16:20:00,100.2,98.1,29.59,ESE,112,2.7,-999.0,94,-99.99,,,0.00,Acu-Link.com,2013-06-29 23:20:00,
2013-06-29 16:36:00,100.8,99.1,29.58,SSW,202,1.7,-999.0,95,-99.99,,,0.00,Acu-Link.com,2013-06-29 23:36:00,
2013-06-29 16:51:00,99.5,96.7,29.58,South,180,1.7,-999.0,92,-99.99,,,0.00,Acu-Link.com,2013-06-29 23:51:00,
2013-06-29 17:07:00,101.3,39.2,29.58,NNW,337,3.2,-999.0,12,-99.99,,,0.00,Acu-Link.com,2013-06-30 00:07:00,
2013-06-29 17:22:00,97.9,97.2,29.58,North,0,1.7,-999.0,98,-99.99,,,0.00,Acu-Link.com,2013-06-30 00:22:00,
2013-06-29 17:38:00,97.9,83.6,29.58,South,180,2.7,-999.0,64,-99.99,,,0.00,Acu-Link.com,2013-06-30 00:38:00,
2013-06-29 17:53:00,98.2,76.9,29.57,WNW,292,2.2,-999.0,51,-99.99,,,0.00,Acu-Link.com,2013-06-30 00:53:00,
2013-06-29 18:08:00,97.5,96.8,29.57,SSW,202,2.2,-999.0,98,-99.99,,,0.00,Acu-Link.com,2013-06-30 01:08:00,
2013-06-29 18:23:00,95.0,44.8,29.58,West,270,0.0,-999.0,18,-99.99,,,0.00,Acu-Link.com,2013-06-30 01:23:00,
2013-06-29 18:39:00,95.5,72.6,29.57,West,270,1.7,-999.0,48,-99.99,,,0.00,Acu-Link.com,2013-06-30 01:39:00,
2013-06-29 19:12:00,95.5,72.6,29.58,South,180,0.0,-999.0,48,-99.99,,,0.00,Acu-Link.com,2013-06-30 02:12:00,
2013-06-29 19:31:00,87.4,86.8,29.58,South,180,0.0,-999.0,98,-99.99,,,0.00,Acu-Link.com,2013-06-30 02:31:00,
2013-06-29 19:46:00,86.5,85.9,29.57,SSW,202,0.0,-999.0,98,-99.99,,,0.00,Acu-Link.com,2013-06-30 02:46:00,
2013-06-29 20:02:00,84.2,83.6,29.57,SSW,202,0.0,-999.0,98,-99.99,,,0.00,Acu-Link.com,2013-06-30 03:02:00,
2013-06-29 20:17:00,82.2,69.7,29.58,WSW,247,0.0,-999.0,66,-99.99,,,0.00,Acu-Link.com,2013-06-30 03:17:00,
2013-06-29 20:32:00,80.8,39.5,29.59,WSW,247,0.0,-999.0,23,-99.99,,,0.00,Acu-Link.com,2013-06-30 03:32:00,
2013-06-29 20:47:00,79.3,52.9,29.58,North,0,0.0,-999.0,40,-99.99,,,0.00,Acu-Link.com,2013-06-30 03:47:00,
2013-06-29 21:02:00,78.6,76.4,29.58,North,0,0.0,-999.0,93,-99.99,,,0.00,Acu-Link.com,2013-06-30 04:02:00,
2013-06-29 21:17:00,77.7,77.1,29.57,North,0,0.0,-999.0,98,-99.99,,,0.00,Acu-Link.com,2013-06-30 04:17:00,
2013-06-29 21:32:00,75.9,65.0,29.57,ESE,112,0.0,-999.0,69,-99.99,,,0.00,Acu-Link.com,2013-06-30 04:32:00,
2013-06-29 21:47:00,75.4,-31.6,29.58,West,270,0.0,-999.0,1,-99.99,,,0.00,Acu-Link.com,2013-06-30 04:47:00,
2013-06-29 22:03:00,75.0,74.4,29.57,SW,225,0.0,-999.0,98,-99.99,,,0.00,Acu-Link.com,2013-06-30 05:03:00,
2013-06-29 22:18:00,74.7,50.7,29.58,SSE,157,0.0,-999.0,43,-99.99,,,0.00,Acu-Link.com,2013-06-30 05:18:00,
2013-06-29 22:33:00,74.1,73.5,29.57,East,90,0.0,-999.0,98,-99.99,,,0.00,Acu-Link.com,2013-06-30 05:33:00,
2013-06-29 22:48:00,74.3,73.7,29.57,South,180,0.0,-999.0,98,-99.99,,,0.00,Acu-Link.com,2013-06-30 05:48:00,
2013-06-29 23:03:00,73.6,73.0,29.57,SSE,157,0.0,-999.0,98,-99.99,,,0.00,Acu-Link.com,2013-06-30 06:03:00,
2013-06-29 23:18:00,73.0,72.4,29.58,South,180,0.0,-999.0,98,-99.99,,,0.00,Acu-Link.com,2013-06-30 06:18:00,
2013-06-29 23:33:00,73.0,68.6,29.57,South,180,0.0,-999.0,86,-99.99,,,0.00,Acu-Link.com,2013-06-30 06:33:00,
2013-06-29 23:48:00,72.5,71.9,29.58,South,180,0.0,-999.0,98,-99.99,,,0.00,Acu-Link.com,2013-06-30 06:48:00,